Content
SEND FEEDBACK

Daily
Averages
Monthly
Summary
United States of America

BERKELEY, MISSOURI


Home > North America > United States > Missouri
Elevation: 564 feet     Latitude: 38 45N     Longitude: 090 22W

WEATHER
 
SELECT A DAY
Number of Records: 207,442;   Date Range: 1/1/95 - 11/23/14
 
SHARE

PRINT THIS DATA

[ ← Previous Day ]
WEATHER ALMANAC - SEPTEMBER 18, 2013
[ Next Day → ]
[ °C ]   °F
Weather ElementAverageHighLow
Temperature76 °F87.1 °F (2:51 pm)66.9 °F (4:51 am)
Dewpoint66.7 °F72 °F (4:51 pm)61 °F (1:51 am)
Humidity73.8 %90 % (4:51 am)53 % (2:51 pm)
Barometer30.01 in30.08 in (2:51 am)29.94 in (5:51 pm)
Wind Speed7.8 mph15 mph (4:07 pm)
Wind Gust16.1 mph (4:18 pm)
Weather ElementAverage
Visibility7.5 mi
Wind DirectionSSE (150.7 °)

Weather ElementTotal
Precipitation0.20 in
Cooling Degree Days12 (Base 65)
Growing Degree Days27 (Base 50)
Averaged from 30 records on September 18, 2013
WEATHER CONDITIONS BREAKOUT
WIND DIRECTION BREAKOUT
WEATHER BY HOUR - SEPTEMBER 18, 2013
[ °C ]   °F
Local TimeTemperatureDewpointHumidityBarometerVisibilityWind DirectionWind SpeedGust SpeedPrecipitationEventsConditions
1:51 AM69.1 °F61.0 °F75 %30.06 in9.0 miSE (130°)4.6 mph0.00 inOvercast
2:51 AM68.0 °F63.0 °F84 %30.08 in6.0 miWNW (290°)3.5 mph0.01 inRainLight Rain
3:51 AM68.0 °F64.0 °F87 %30.06 in5.0 miEast (80°)4.6 mph0.11 inRainLight Rain
4:51 AM66.9 °F64.0 °F90 %30.05 in5.0 miESE (110°)6.9 mph0.03 inRainLight Rain
5:51 AM68.0 °F64.9 °F90 %30.04 in5.0 miSE (140°)8.1 mph0.00 inOvercast
6:39 AM69.8 °F64.4 °F83 %30.06 in4.0 miSE (140°)9.2 mph0.00 inRainLight Rain
6:51 AM68.0 °F64.9 °F90 %30.05 in4.0 miSSE (150°)4.6 mph0.00 inRainLight Rain
7:15 AM69.8 °F64.4 °F83 %30.07 in5.0 miSE (140°)8.1 mphMostly Cloudy
7:25 AM69.8 °F64.4 °F83 %30.07 in4.0 miSE (140°)6.9 mph0.00 inRainLight Rain
7:51 AM69.1 °F64.9 °F87 %30.05 in4.0 miSE (130°)9.2 mph0.00 inMostly Cloudy
8:35 AM69.8 °F66.2 °F88 %30.08 in5.0 miSE (140°)8.1 mphMostly Cloudy
8:51 AM70.0 °F64.9 °F84 %30.06 in5.0 miSE (140°)10.4 mphHaze
9:51 AM73.9 °F66.0 °F76 %30.06 in7.0 miSSE (150°)10.4 mphMostly Cloudy
10:51 AM78.1 °F66.9 °F68 %30.04 in10.0 miSSE (160°)11.5 mphMostly Cloudy
11:51 AM81.0 °F66.9 °F62 %30.03 in7.0 miSSE (150°)9.2 mphMostly Cloudy
12:51 PM82.9 °F68.0 °F60 %30.02 in10.0 miSouth (170°)6.9 mphMostly Cloudy
1:51 PM86.0 °F68.0 °F55 %29.98 in10.0 miSSE (150°)8.1 mphMostly Cloudy
2:51 PM87.1 °F68.0 °F53 %29.97 in10.0 miSSE (160°)4.6 mphMostly Cloudy
3:51 PM84.9 °F69.1 °F59 %29.95 in10.0 miSE (140°)9.2 mph0.00 inRainLight Rain
3:58 PM84.2 °F68.0 °F58 %29.98 in7.0 miSE (140°)9.2 mph0.00 inRain-ThunderstormLight Thunderstorms and Rain
4:07 PM82.4 °F69.8 °F66 %29.98 in4.0 miSE (130°)15.0 mph0.01 inRain-ThunderstormLight Thunderstorms and Rain
4:18 PM78.8 °F71.6 °F78 %29.98 in8.0 miSE (130°)6.9 mph16.1 mph0.02 inRain-ThunderstormLight Thunderstorms and Rain
4:51 PM79.0 °F72.0 °F79 %29.96 in10.0 miESE (120°)9.2 mph0.02 inRain-ThunderstormLight Thunderstorms and Rain
5:08 PM80.6 °F71.6 °F74 %29.98 in10.0 miSSE (160°)9.2 mph0.00 inMostly Cloudy
5:51 PM82.0 °F68.0 °F62 %29.94 in10.0 miSouth (170°)6.9 mph0.00 inScattered Clouds
6:51 PM80.1 °F68.0 °F67 %29.95 in10.0 miSSW (200°)5.8 mphScattered Clouds
8:51 PM78.1 °F66.0 °F66 %29.96 in10.0 miSSE (160°)5.8 mphScattered Clouds
9:51 PM78.1 °F66.9 °F68 %29.96 in10.0 miSSE (150°)9.2 mphScattered Clouds
10:51 PM78.1 °F66.9 °F68 %29.96 in10.0 miSouth (170°)6.9 mphScattered Clouds
11:51 PM77.0 °F66.9 °F71 %29.95 in10.0 miSouth (180°)4.6 mphScattered Clouds
Hourly data recorded from KSTL, located miles away from Berkeley, Missouri







STORIES FROM OUR PARTNERS